Wind_Speed
9 7 5 4 3 4 7 4 7 9 14 14 15 15 18 20 19 15 17 20 22 23 26 25 26 23 23 23 23 23 22 21 21 22 23 25 25 25 24 23 24 25 25 27 27 28 27 27 29
6 7 5 2 4 6 1 5 11 11 14 14 17 19 20 21 21 17 15 18 21 24 25 27 25 20 19 18 17 19 20 22 23 25 25 25 26 28 28 26 25 26 26 27 28 29 29 28 29
5 5 4 3 7 8 4 6 15 16 16 19 20 21 21 22 18 14 16 20 23 24 25 27 22 19 19 19 20 21 23 24 25 27 28 27 27 27 27 28 27 26 27 27 27 28 30 30 30
4 5 5 10 11 10 10 11 16 12 12 14 18 19 20 19 17 18 19 21 21 25 24 24 19 18 18 21 24 26 26 25 27 28 29 27 27 27 28 27 27 27 26 27 28 27 27 29 29
5 5 9 14 14 13 11 4 10 17 23 21 22 17 17 17 20 19 19 20 21 25 23 21 16 16 18 21 23 27 30 31 31 30 29 28 26 25 25 26 27 27 27 27 28 27 27 27 28
10 7 11 16 17 17 16 6 8 8 17 16 17 15 24 21 27 19 21 18 21 24 24 22 17 16 18 23 27 29 32 34 34 32 30 28 27 25 24 24 25 26 27 27 27 27 27 26 27
12 11 17 19 19 18 9 8 6 10 9 16 15 21 25 25 21 21 19 21 21 24 25 25 20 18 19 23 28 31 34 38 38 34 29 29 28 24 22 21 21 22 22 23 24 26 27 29 28
17 16 21 22 21 20 16 12 13 10 13 17 19 22 23 23 20 23 22 21 23 25 24 25 24 21 23 27 30 33 36 39 39 34 28 26 24 23 21 21 21 20 21 21 23 25 26 27 29
21 22 24 23 24 15 13 13 15 14 18 19 27 22 19 22 23 23 22 21 24 27 28 25 25 24 25 29 32 34 37 39 39 33 29 24 21 20 21 22 23 21 20 19 19 20 23 25 28
28 31 29 24 29 25 19 17 16 16 17 18 28 30 27 24 21 21 21 22 26 30 31 28 26 25 27 30 33 36 38 41 40 33 27 22 21 21 21 22 23 22 20 18 16 19 18 23 25
35 37 26 29 29 33 28 28 20 23 26 20 24 29 27 24 23 25 28 26 24 24 25 24 26 26 27 30 34 37 39 42 39 31 25 24 23 23 24 23 21 21 21 19 18 19 18 20 23
39 37 35 29 29 35 36 34 30 24 25 23 25 36 29 26 29 26 28 31 29 24 30 26 26 26 27 30 34 36 38 40 34 26 22 20 21 21 23 24 21 20 19 17 18 18 19 19 22
42 35 36 38 36 36 37 36 35 31 23 25 23 34 30 30 32 29 28 31 30 26 31 27 27 25 27 29 34 36 39 39 32 24 21 21 18 21 25 24 20 20 17 16 15 16 19 20 21
34 40 38 38 40 43 40 43 37 35 26 31 32 30 30 30 33 27 29 28 26 25 31 28 26 26 28 30 32 34 38 34 28 24 21 19 20 22 22 22 21 18 17 15 15 16 18 20 22
36 41 40 43 42 40 39 47 43 33 29 34 30 31 34 33 32 31 31 31 28 26 30 29 26 28 29 31 31 35 36 30 25 22 20 20 23 24 22 19 18 17 15 14 15 16 19 22 23
36 39 45 42 38 44 37 50 42 33 34 36 33 32 33 36 29 31 33 32 32 30 32 29 26 30 31 32 32 33 30 26 22 19 20 24 23 22 20 15 13 14 12 14 15 17 21 23 24
36 46 44 48 43 38 34 44 41 37 36 36 26 32 37 30 32 29 30 30 33 32 34 29 28 32 31 32 30 29 23 21 22 22 23 23 18 21 16 11 11 11 12 12 14 17 22 23 22
40 43 47 49 35 27 30 36 38 34 29 26 26 28 27 26 27 29 29 26 32 33 32 33 31 33 31 29 27 24 21 21 24 24 21 19 13 17 12 9 10 10 11 11 15 19 25 22 24
41 36 38 43 37 29 28 28 31 22 26 24 26 22 25 19 26 31 30 25 24 27 27 33 32 31 30 26 24 19 18 20 22 21 14 13 14 11 10 8 8 9 9 11 16 22 24 23 24
43 40 45 43 37 28 29 31 26 23 21 21 24 27 29 26 25 28 31 27 18 20 25 30 31 29 25 24 22 16 17 19 20 20 12 10 11 15 8 8 7 7 6 11 17 23 23 24 24
47 47 45 43 27 28 31 36 23 19 20 21 15 17 18 22 25 23 23 17 15 18 24 29 27 25 22 23 19 15 16 20 20 18 13 9 8 11 5 6 6 5 6 10 18 25 20 17 25
47 44 40 37 32 23 2 9 19 22 24 17 17 20 23 24 27 23 13 13 11 17 24 25 23 21 20 19 15 13 15 17 18 16 11 9 9 4 6 5 5 6 9 14 23 21 15 15 22
50 41 36 32 32 29 31 16 33 22 22 17 20 18 15 13 14 10 8 9 12 19 24 21 20 18 18 14 13 12 14 15 16 13 11 9 6 0 3 5 5 9 10 18 22 20 12 15 23
38 37 26 28 32 21 40 18 17 26 24 20 16 11 9 10 10 7 9 10 15 19 17 18 15 17 13 12 11 11 12 12 13 13 10 8 3 3 3 6 7 11 14 16 19 17 14 14 19
36 32 5 7 9 7 25 18 35 20 12 19 16 17 14 13 7 4 7 9 9 13 15 12 15 12 9 8 8 10 9 10 11 13 8 7 4 4 6 8 11 13 17 14 18 17 15 16 18
42 38 15 6 4 5 26 11 26 19 14 19 22 21 15 11 6 1 7 7 9 11 11 14 11 9 7 5 7 7 7 9 13 11 4 6 5 5 6 10 13 14 15 13 17 18 18 20 20
34 47 38 5 6 0 13 29 32 24 24 24 17 16 17 8 3 6 4 6 6 11 12 8 8 5 4 5 6 6 6 9 11 7 6 7 3 6 9 11 13 15 16 15 13 14 17 15 19
40 29 29 31 5 4 6 12 18 16 7 8 12 13 14 9 2 6 6 6 8 7 5 5 4 3 2 3 3 5 5 8 9 8 9 7 5 5 10 12 12 13 12 12 11 11 13 13 14
44 32 32 29 18 5 2 9 18 16 15 14 13 14 9 5 4 5 6 7 6 4 3 3 2 1 2 2 2 4 3 5 10 8 7 8 9 8 10 11 12 12 12 10 10 13 15 15 18
41 45 31 27 15 28 14 19 4 9 15 20 17 14 9 6 4 6 8 7 3 5 3 2 1 1 1 1 2 2 4 5 8 8 10 10 11 10 11 11 13 13 13 13 10 11 14 18 19
Wind_Direction
160 166 153 185 222 237 272 318 353 326 327 298 290 297 303 310 312 314 323 320 322 331 334 335 331 325 317 311 308 308 312 312 311 308 307 304 300 295 288 282 276 272 268 267 263 259 254 246 240
171 173 161 188 220 228 255 7 339 359 323 307 290 292 297 302 311 309 299 309 323 327 333 335 330 328 324 321 323 324 324 320 315 312 306 303 299 293 288 282 275 271 270 265 262 260 254 251 244
185 190 216 212 232 231 264 320 313 296 322 307 286 284 292 298 295 291 296 313 322 330 334 338 332 332 341 348 347 340 333 325 321 313 306 302 295 289 284 283 280 274 270 265 262 257 255 250 247
192 209 253 251 258 248 291 335 331 302 313 292 297 278 283 296 289 290 302 320 327 334 336 338 338 334 342 348 348 348 340 330 322 313 309 302 294 287 282 279 278 277 273 270 265 257 252 252 249
228 229 249 270 281 281 284 355 357 317 314 312 303 291 284 277 288 293 310 321 328 330 334 339 342 342 341 341 341 342 342 335 329 324 314 304 297 288 283 279 275 274 271 268 264 261 257 253 251
231 243 258 268 284 298 299 261 355 319 324 314 294 285 293 295 304 309 320 313 315 328 333 340 329 331 334 334 333 332 335 335 335 326 315 307 303 296 289 282 278 275 270 267 263 259 256 250 246
241 244 262 276 284 301 317 225 270 326 342 317 301 284 289 297 298 312 312 304 309 321 331 332 320 324 331 329 325 329 331 335 334 327 316 309 303 296 292 290 284 278 274 269 265 258 251 246 241
247 239 257 269 280 283 306 233 263 290 313 319 318 294 301 303 293 310 303 298 306 315 323 326 325 325 328 325 324 330 330 331 329 324 314 309 305 302 298 292 288 281 277 272 264 258 248 241 238
250 243 255 270 278 285 287 294 252 287 305 309 308 314 314 297 294 297 302 302 304 319 320 323 326 326 323 321 324 325 324 326 325 320 314 306 303 300 297 295 289 285 277 271 267 268 251 241 236
247 245 259 283 282 283 270 278 281 283 290 296 311 303 303 295 290 299 302 303 315 327 329 327 322 323 322 322 322 320 321 324 324 319 312 309 301 298 292 290 290 286 278 266 258 261 254 238 236
251 252 281 277 279 280 275 271 275 282 281 293 307 302 292 289 288 300 301 300 315 332 330 329 323 324 322 320 319 317 322 321 320 312 307 306 301 295 288 291 290 290 281 266 257 249 247 235 228
252 265 271 281 274 274 274 275 270 264 280 295 290 291 292 286 284 293 298 301 309 320 326 324 324 319 317 317 314 314 315 314 315 307 309 312 309 297 295 297 288 280 271 257 253 244 237 226 219
257 276 272 271 271 270 273 265 262 262 271 295 286 289 284 291 279 290 297 299 309 314 318 314 316 317 312 309 308 314 310 314 314 309 309 316 319 306 297 293 280 278 267 259 254 244 233 226 212
266 268 266 264 266 266 267 262 261 255 269 286 285 285 282 291 275 285 294 298 313 303 312 306 310 315 307 302 306 306 308 313 310 307 302 307 316 318 304 282 266 266 255 259 263 238 227 217 208
260 266 261 258 264 266 266 272 256 260 271 280 280 277 280 280 269 283 298 293 297 302 307 303 304 307 303 299 304 305 311 313 306 299 295 304 308 314 305 270 264 251 256 275 260 233 220 206 205
263 264 266 266 265 271 264 268 260 266 276 276 273 275 269 277 275 285 290 289 292 292 294 289 298 299 297 302 301 306 312 312 309 300 297 302 308 313 306 263 248 245 265 270 244 225 212 205 202
251 256 262 272 270 269 260 265 265 274 276 280 274 277 273 271 265 279 290 286 288 287 284 283 292 290 293 297 301 309 315 317 318 310 300 299 299 313 305 259 244 256 270 260 235 210 200 196 201
241 252 259 268 275 281 278 273 272 276 283 280 270 282 280 262 263 277 281 279 280 280 284 280 284 286 292 294 305 310 317 317 320 314 302 301 296 309 298 260 246 250 268 249 219 199 192 187 194
251 248 258 264 271 277 280 284 270 267 274 285 274 274 259 260 267 273 274 268 284 282 287 279 278 284 293 296 307 307 314 324 328 321 298 299 304 308 289 249 243 251 251 225 202 193 184 185 188
238 245 254 266 268 277 280 282 271 262 278 280 288 268 258 253 278 278 270 270 277 288 277 271 273 288 291 298 306 300 314 324 335 337 315 300 309 304 275 248 245 258 229 213 196 187 182 188 189
235 241 250 257 269 273 283 284 266 254 273 288 275 269 262 260 272 286 287 276 282 276 269 263 276 290 289 301 300 296 316 330 339 338 327 317 305 308 230 235 235 239 201 193 182 177 183 201 192
233 239 249 258 270 275 282 296 279 258 266 265 273 298 278 272 284 281 270 274 276 268 261 264 286 289 294 300 294 294 319 327 341 339 337 335 331 334 198 206 204 185 169 164 165 171 185 189 185
235 240 243 254 266 272 271 269 273 266 269 266 278 293 279 271 273 282 279 258 271 261 254 277 290 287 297 295 292 302 315 333 344 344 344 337 345 33 189 178 182 164 173 170 168 173 173 180 176
232 235 241 260 260 265 265 249 271 262 256 276 289 295 262 276 263 258 259 258 261 253 273 285 285 291 300 292 298 304 316 337 357 358 347 356 15 146 143 163 165 152 163 170 180 186 182 185 192
222 227 234 253 226 226 250 256 258 260 261 275 272 288 266 250 230 233 259 272 272 270 280 282 291 298 291 286 301 305 332 344 349 352 355 14 73 135 159 152 152 149 163 168 179 178 180 180 182
213 210 184 205 197 187 240 239 242 244 271 280 287 277 240 229 211 268 284 260 263 276 277 292 290 297 276 292 303 329 346 350 347 338 24 65 77 115 160 145 150 155 161 169 174 183 183 175 177
207 212 210 268 273 277 212 244 255 270 266 274 262 239 212 227 242 296 247 246 264 282 276 281 294 268 286 288 300 353 359 9 12 31 93 51 91 132 137 144 151 154 156 157 168 179 177 169 180
218 202 196 216 211 207 249 232 221 245 237 247 239 210 208 245 272 251 234 224 290 269 257 287 270 223 278 285 317 1 24 27 24 55 80 46 99 136 147 151 141 151 152 154 163 170 180 177 171
200 193 207 214 230 170 184 245 229 230 250 273 241 210 213 202 230 220 226 228 283 235 244 291 245 178 265 344 15 350 53 48 29 49 81 65 107 128 134 142 136 140 144 148 164 167 172 179 166
204 204 192 192 196 229 243 253 222 229 250 255 226 208 194 208 202 229 212 230 256 218 233 312 6 193 276 32 21 24 67 51 43 60 87 104 109 101 123 143 148 150 147 144 152 152 157 154 159
Height
3170 3170 3170 3170 3175 3172 3170 3170 3168 3168 3168 3167 3166 3165 3165 3162 3162 3163 3158 3156 3155 3153 3150 3148 3146 3144 3142 3140 3138 3136 3134 3132 3131 3129 3128 3126 3125 3126 3126 3127 3127 3127 3128 3128 3128 3129 3131 3133 3135
3169 3169 3169 3169 3172 3170 3169 3169 3168 3167 3167 3166 3165 3163 3162 3160 3159 3158 3157 3156 3154 3151 3149 3146 3143 3142 3140 3138 3136 3134 3132 3130 3129 3127 3125 3124 3122 3121 3120 3121 3122 3123 3122 3123 3123 3124 3125 3127 3130
3169 3168 3169 3167 3168 3169 3168 3167 3166 3165 3165 3162 3161 3161 3160 3158 3156 3156 3155 3154 3152 3149 3146 3145 3142 3140 3138 3136 3134 3132 3130 3127 3125 3124 3122 3120 3118 3116 3115 3113 3114 3115 3116 3117 3118 3119 3120 3121 3123
3168 3168 3168 3165 3165 3167 3167 3164 3163 3161 3162 3161 3158 3158 3157 3157 3155 3154 3152 3151 3149 3147 3146 3143 3140 3138 3136 3134 3132 3130 3128 3125 3122 3119 3117 3114 3113 3111 3109 3109 3108 3108 3109 3110 3112 3113 3114 3115 3116
3167 3166 3165 3161 3162 3164 3164 3163 3162 3161 3159 3157 3156 3155 3155 3154 3153 3152 3151 3149 3147 3146 3144 3141 3139 3137 3135 3133 3131 3128 3124 3121 3118 3114 3111 3108 3107 3106 3104 3103 3103 3103 3103 3104 3105 3106 3107 3109 3112
3165 3164 3162 3159 3159 3160 3161 3161 3159 3158 3156 3154 3153 3152 3152 3152 3150 3149 3147 3145 3143 3142 3140 3139 3137 3135 3133 3131 3128 3126 3122 3118 3112 3109 3105 3102 3101 3099 3098 3097 3098 3098 3098 3099 3099 3100 3102 3104 3106
3162 3162 3160 3157 3156 3155 3159 3158 3157 3155 3152 3152 3151 3150 3149 3148 3145 3144 3143 3141 3140 3138 3137 3136 3135 3132 3129 3128 3126 3123 3118 3112 3107 3104 3100 3097 3095 3093 3092 3091 3092 3093 3093 3092 3092 3093 3095 3098 3101
3159 3160 3157 3155 3154 3154 3155 3156 3154 3153 3150 3150 3148 3147 3146 3146 3141 3140 3139 3137 3135 3135 3134 3132 3131 3128 3126 3124 3121 3116 3111 3108 3104 3100 3097 3094 3090 3087 3087 3087 3086 3086 3087 3086 3087 3087 3089 3092 3095
3154 3156 3153 3151 3151 3152 3153 3150 3151 3149 3147 3146 3145 3143 3143 3141 3138 3137 3136 3134 3133 3132 3130 3129 3127 3124 3121 3118 3114 3111 3108 3104 3100 3096 3092 3089 3087 3084 3082 3082 3082 3081 3080 3080 3081 3081 3082 3085 3088
3148 3147 3147 3149 3148 3149 3149 3146 3145 3143 3142 3141 3141 3140 3139 3137 3135 3134 3133 3132 3130 3129 3127 3125 3123 3120 3117 3113 3109 3107 3103 3099 3095 3091 3087 3085 3083 3081 3079 3078 3077 3076 3076 3076 3077 3077 3078 3080 3083
3140 3139 3143 3144 3144 3142 3143 3141 3141 3137 3136 3138 3137 3137 3135 3134 3132 3130 3129 3128 3127 3126 3124 3122 3118 3115 3111 3108 3105 3103 3098 3094 3091 3088 3085 3082 3079 3077 3075 3073 3072 3071 3071 3071 3072 3074 3075 3077 3080
3132 3134 3136 3137 3139 3138 3136 3136 3132 3132 3130 3132 3132 3133 3130 3129 3128 3127 3126 3124 3122 3121 3120 3116 3113 3111 3108 3105 3103 3100 3097 3093 3089 3086 3082 3079 3076 3073 3070 3068 3068 3067 3067 3068 3068 3070 3071 3074 3077
3126 3131 3130 3131 3131 3130 3129 3127 3125 3123 3125 3126 3126 3127 3126 3125 3123 3122 3121 3119 3118 3117 3114 3112 3109 3107 3105 3102 3100 3096 3093 3088 3083 3080 3077 3074 3071 3068 3065 3063 3063 3063 3064 3063 3064 3065 3068 3070 3073
3126 3123 3122 3123 3123 3123 3121 3117 3119 3117 3120 3120 3120 3121 3121 3120 3118 3118 3116 3115 3115 3113 3110 3108 3106 3103 3102 3100 3097 3095 3090 3084 3080 3076 3074 3070 3067 3064 3060 3059 3059 3060 3061 3060 3059 3061 3064 3067 3070
3117 3113 3114 3115 3116 3114 3116 3108 3108 3112 3115 3115 3115 3115 3116 3114 3114 3112 3111 3110 3109 3107 3105 3103 3103 3101 3099 3097 3094 3091 3085 3080 3076 3073 3069 3066 3064 3060 3056 3054 3055 3056 3056 3055 3055 3057 3060 3063 3068
3111 3110 3104 3108 3112 3109 3114 3096 3104 3109 3109 3109 3109 3109 3109 3109 3109 3107 3106 3106 3105 3103 3101 3100 3099 3098 3096 3093 3091 3087 3082 3077 3073 3069 3065 3062 3060 3056 3052 3050 3051 3052 3052 3052 3052 3054 3057 3062 3066
3105 3099 3101 3098 3104 3104 3105 3095 3097 3102 3103 3102 3102 3104 3101 3101 3101 3102 3101 3100 3099 3098 3097 3097 3096 3095 3093 3090 3087 3083 3078 3073 3068 3064 3061 3058 3055 3052 3048 3047 3048 3048 3049 3049 3049 3052 3056 3060 3065
3096 3097 3095 3091 3097 3099 3096 3093 3093 3095 3096 3096 3096 3097 3095 3094 3095 3097 3096 3095 3093 3093 3094 3094 3093 3092 3089 3086 3082 3078 3074 3070 3065 3059 3056 3053 3051 3048 3045 3045 3045 3046 3047 3046 3048 3051 3054 3059 3063
3093 3093 3089 3087 3094 3094 3091 3089 3088 3088 3090 3090 3091 3091 3091 3090 3092 3092 3091 3090 3089 3090 3090 3090 3089 3088 3085 3081 3078 3075 3071 3067 3061 3055 3051 3049 3047 3045 3044 3043 3044 3044 3044 3044 3046 3050 3054 3058 3062
3086 3087 3083 3084 3090 3091 3086 3084 3082 3082 3084 3086 3086 3085 3085 3086 3088 3087 3086 3086 3085 3087 3087 3086 3085 3084 3081 3077 3075 3072 3068 3064 3058 3053 3048 3045 3044 3043 3041 3042 3043 3043 3042 3043 3045 3050 3054 3056 3061
3076 3079 3082 3081 3087 3086 3083 3076 3076 3079 3080 3081 3081 3081 3081 3082 3083 3081 3079 3080 3082 3083 3083 3083 3082 3080 3077 3074 3072 3069 3065 3060 3055 3051 3046 3043 3042 3039 3039 3040 3041 3041 3041 3042 3046 3050 3055 3057 3060
3068 3075 3078 3080 3084 3082 3080 3074 3071 3076 3077 3078 3079 3078 3077 3077 3077 3076 3076 3077 3079 3080 3080 3080 3078 3076 3074 3072 3069 3066 3063 3059 3053 3049 3045 3042 3040 3038 3038 3039 3041 3041 3042 3043 3047 3052 3055 3058 3061
3062 3073 3076 3078 3077 3077 3074 3078 3063 3071 3071 3073 3073 3073 3072 3073 3073 3073 3074 3075 3077 3077 3077 3076 3074 3072 3071 3068 3066 3063 3060 3057 3052 3048 3045 3041 3039 3039 3039 3040 3041 3042 3044 3046 3049 3053 3056 3059 3063
3063 3069 3073 3075 3076 3068 3064 3074 3058 3063 3066 3068 3069 3069 3069 3071 3070 3070 3071 3073 3074 3074 3074 3072 3071 3069 3068 3065 3063 3061 3058 3055 3051 3047 3044 3041 3039 3038 3039 3040 3041 3043 3045 3048 3051 3054 3057 3060 3065
3058 3065 3071 3071 3068 3059 3060 3064 3052 3056 3060 3063 3065 3066 3067 3067 3068 3068 3070 3070 3071 3071 3070 3069 3068 3067 3065 3063 3061 3059 3056 3053 3050 3047 3044 3040 3039 3039 3040 3041 3043 3043 3046 3049 3051 3055 3057 3061 3065
3046 3053 3057 3063 3060 3054 3056 3051 3044 3053 3056 3059 3060 3061 3063 3064 3066 3065 3067 3068 3068 3068 3067 3066 3065 3064 3063 3062 3059 3057 3055 3052 3049 3046 3044 3042 3041 3040 3041 3042 3044 3045 3048 3050 3053 3056 3058 3062 3066
3037 3038 3052 3054 3051 3050 3047 3045 3047 3050 3051 3054 3055 3056 3060 3062 3063 3063 3064 3066 3066 3065 3065 3064 3063 3062 3062 3060 3058 3056 3054 3053 3049 3045 3044 3043 3042 3042 3043 3044 3046 3048 3051 3053 3055 3058 3061 3063 3066
3027 3039 3050 3050 3050 3049 3042 3041 3044 3048 3049 3049 3051 3054 3058 3060 3060 3061 3062 3063 3063 3063 3063 3062 3061 3061 3060 3059 3057 3055 3054 3053 3050 3047 3046 3044 3044 3044 3045 3046 3048 3050 3053 3055 3057 3059 3062 3064 3067
3019 3024 3030 3038 3038 3040 3043 3036 3041 3044 3046 3048 3050 3053 3056 3057 3059 3059 3061 3062 3061 3061 3061 3061 3060 3060 3059 3058 3055 3054 3055 3053 3050 3048 3047 3046 3046 3046 3047 3048 3051 3052 3054 3056 3059 3061 3063 3066 3068
3011 3017 3020 3022 3028 3032 3036 3032 3037 3040 3042 3044 3048 3052 3054 3056 3057 3058 3059 3059 3059 3059 3060 3060 3059 3059 3058 3057 3056 3055 3055 3054 3051 3050 3048 3048 3048 3048 3049 3051 3052 3054 3056 3059 3060 3062 3065 3068 3071